{"data":{"norad_id":64760,"intl_designator":"2025-147F","name":"STARLINK-34235","alt_names":[],"object_type":"PAYLOAD","status":"ACTIVE","operator":null,"country":"US","launch_date":"2025-07-08","launch_site_code":"AFETR","launch_vehicle":null,"mission":null,"orbit_class":"UNKNOWN","rcs_meters":null,"size_class":null,"mass_kg":null,"dimensions":null,"purposes":["comms"],"wikipedia_slug":null,"has_3d_model":false,"image_url":null,"decayed_at":null,"tle_current":{"epoch":"2026-09-20T21:38:18.814560Z","epoch_age_seconds":92987,"freshness":"FRESH","line1":"1 64760U 25147F   26263.90160665  .00023985  00000+0  71911-3 0  9992","line2":"2 64760  53.1579  52.1809 0000954  60.2102 299.8995 15.34383721 68731","mean_motion":15.34383721,"eccentricity":9.54e-5,"inclination_deg":53.1579,"raan_deg":52.1809,"arg_perigee_deg":60.2102,"mean_anomaly_deg":299.8995,"bstar":0.00071911,"rev_number":6873,"period_min":93.848753756428,"perigee_km":462.09900447868,"apogee_km":463.40424602838,"semimajor_km":6840.8886252535,"source":"CELESTRAK","updated_at":"2026-09-21T09:00:35.436890Z"}}}